| time (UTC) | temp F | wind direction | speed knots | gust knots | rain 1hr in | rain 24hr in | rain mn in | humidity % | barometer mb |
| 20260906230624 | 58 | 157 | 6.1 | 7.0 | 0.00 | 0.00 | 0.00 | 39 | 1034.1 |
| 20260906230119 | 58 | 187 | 7.8 | 8.7 | 0.00 | 0.00 | 0.00 | 38 | 1034.5 |
| 20260906225618 | 58 | 176 | 7.8 | 13.0 | 0.00 | 0.00 | 0.00 | 37 | 1034.4 |
| 20260906225115 | 59 | 159 | 8.7 | 9.6 | 0.00 | 0.00 | 0.00 | 38 | 1034.4 |
| 20260906224614 | 59 | 150 | 10.4 | 13.0 | 0.00 | 0.00 | 0.00 | 37 | 1034.4 |
| 20260906224111 | 58 | 133 | 12.2 | 13.0 | 0.00 | 0.00 | 0.00 | 37 | 1033.9 |
| 20260906223607 | 59 | 147 | 15.6 | 17.4 | 0.00 | 0.00 | 0.00 | 36 | 1033.9 |
| 20260906223106 | 58 | 166 | 7.8 | 7.8 | 0.00 | 0.00 | 0.00 | 39 | 1034.1 |
| 20260906222606 | 58 | 148 | 7.8 | 8.7 | 0.00 | 0.00 | 0.00 | 38 | 1034.2 |
| 20260906222104 | 58 | 160 | 13.9 | 15.6 | 0.00 | 0.00 | 0.00 | 37 | 1034.7 |
| 20260906221602 | 59 | 158 | 7.8 | 9.6 | 0.00 | 0.00 | 0.00 | 37 | 1034.4 |
| 20260906221057 | 58 | 139 | 16.5 | 19.1 | 0.00 | 0.00 | 0.00 | 36 | 1034.4 |
| 20260906220552 | 59 | 148 | 17.4 | 20.9 | 0.00 | 0.00 | 0.00 | 37 | 1034.5 |
| 20260906220048 | 59 | 144 | 17.4 | 20.0 | 0.00 | 0.00 | 0.00 | 35 | 1034.4 |
| 20260906215546 | 59 | 153 | 16.5 | 19.1 | 0.00 | 0.00 | 0.00 | 36 | 1034.4 |
| 20260906215045 | 61 | 170 | 17.4 | 19.1 | 0.00 | 0.00 | 0.00 | 34 | 1034.5 |
| 20260906214544 | 59 | 153 | 8.7 | 9.6 | 0.00 | 0.00 | 0.00 | 36 | 1034.8 |
| 20260906214039 | 59 | 154 | 14.8 | 15.6 | 0.00 | 0.00 | 0.00 | 35 | 1034.7 |
| 20260906213538 | 59 | 149 | 14.8 | 17.4 | 0.00 | 0.00 | 0.00 | 36 | 1034.8 |
| 20260906213033 | 59 | 159 | 13.0 | 18.2 | 0.00 | 0.00 | 0.00 | 36 | 1034.8 |
| 20260906212526 | 59 | 141 | 8.7 | 8.7 | 0.00 | 0.00 | 0.00 | 37 | 1035.0 |
| 20260906212022 | 58 | 126 | 9.6 | 9.6 | 0.00 | 0.00 | 0.00 | 38 | 1035.0 |
| 20260906211515 | 59 | 157 | 6.1 | 7.0 | 0.00 | 0.00 | 0.00 | 35 | 1035.0 |
| 20260906211011 | 59 | 148 | 9.6 | 9.6 | 0.00 | 0.00 | 0.00 | 35 | 1035.3 |
| 20260906210506 | 58 | 256 | 7.0 | 7.8 | 0.00 | 0.00 | 0.00 | 38 | 1035.4 |
| 20260906210006 | 59 | 151 | 7.0 | 7.8 | 0.00 | 0.00 | 0.00 | 39 | 1035.0 |
| 20260906205502 | 58 | 162 | 12.2 | 13.9 | 0.00 | 0.00 | 0.00 | 38 | 1035.1 |
| 20260906204958 | 58 | 157 | 10.4 | 12.2 | 0.00 | 0.00 | 0.00 | 39 | 1035.1 |
| 20260906204457 | 59 | 148 | 10.4 | 11.3 | 0.00 | 0.00 | 0.00 | 37 | 1035.4 |
| 20260906203956 | 58 | 202 | 7.0 | 8.7 | 0.00 | 0.00 | 0.00 | 41 | 1035.1 |
| 20260906203452 | 58 | 205 | 5.2 | 6.1 | 0.00 | 0.00 | 0.00 | 40 | 1035.3 |
| 20260906202949 | 59 | 157 | 7.8 | 8.7 | 0.00 | 0.00 | 0.00 | 44 | 1035.4 |
| 20260906202448 | 59 | 174 | 8.7 | 8.7 | 0.00 | 0.00 | 0.00 | 38 | 1035.3 |
| 20260906201943 | 58 | 165 | 5.2 | 6.1 | 0.00 | 0.00 | 0.00 | 41 | 1035.5 |
| 20260906201438 | 57 | 149 | 8.7 | 9.6 | 0.00 | 0.00 | 0.00 | 41 | 1035.3 |
| 20260906200932 | 56 | 173 | 6.1 | 7.8 | 0.00 | 0.00 | 0.00 | 48 | 1035.5 |
| 20260906200429 | 56 | 196 | 6.1 | 6.1 | 0.00 | 0.00 | 0.00 | 56 | 1035.5 |
| 20260906195929 | 57 | 233 | 8.7 | 8.7 | 0.00 | 0.00 | 0.00 | 54 | 1035.4 |
| 20260906195425 | 57 | 152 | 12.2 | 13.0 | 0.00 | 0.07 | 0.07 | 43 | 1035.4 |
| 20260906194921 | 57 | 149 | 13.0 | 13.9 | 0.00 | 0.07 | 0.07 | 44 | 1035.5 |
| 20260906194417 | 57 | 287 | 2.6 | 5.2 | 0.00 | 0.07 | 0.07 | 47 | 1035.4 |
| 20260906193912 | 57 | 169 | 6.1 | 6.1 | 0.00 | 0.07 | 0.07 | 52 | 1035.4 |
| 20260906193406 | 57 | 224 | 4.3 | 5.2 | 0.00 | 0.07 | 0.07 | 51 | 1035.8 |
| 20260906192903 | 57 | 193 | 2.6 | 2.6 | 0.00 | 0.07 | 0.07 | 52 | 1035.5 |
| 20260906192402 | 57 | 158 | 5.2 | 6.1 | 0.00 | 0.07 | 0.07 | 53 | 1036.0 |
| 20260906191901 | 57 | 239 | 5.2 | 7.0 | 0.00 | 0.07 | 0.07 | 55 | 1035.3 |
| 20260906191356 | 55 | 168 | 4.3 | 5.2 | 0.00 | 0.07 | 0.07 | 58 | 1035.7 |
| 20260906190855 | 56 | 196 | 7.8 | 7.8 | 0.00 | 0.07 | 0.07 | 56 | 1036.0 |
| 20260906190349 | 56 | 80 | 0.0 | 0.0 | 0.00 | 0.07 | 0.07 | 58 | 1035.7 |
| 20260906185844 | 55 | 91 | 1.7 | 1.7 | 0.00 | 0.07 | 0.07 | 56 | 1035.7 |
| 20260906185343 | 56 | 157 | 7.0 | 7.0 | 0.05 | 0.07 | 0.07 | 58 | 1036.0 |
| 20260906184843 | 55 | 240 | 4.3 | 5.2 | 0.05 | 0.07 | 0.07 | 59 | 1036.1 |
| 20260906184338 | 56 | 61 | 0.0 | 0.0 | 0.00 | 0.06 | 0.06 | 56 | 1035.7 |
| 20260906183833 | 56 | 203 | 2.6 | 4.3 | 0.00 | 0.06 | 0.06 | 57 | 1036.3 |
| 20260906183330 | 54 | 250 | 2.6 | 2.6 | 0.00 | 0.06 | 0.06 | 57 | 1035.8 |
| 20260906182829 | 53 | 326 | 2.6 | 2.6 | 0.00 | 0.06 | 0.06 | 60 | 1035.8 |
| 20260906182325 | 54 | 336 | 6.1 | 7.0 | 0.00 | 0.06 | 0.06 | 60 | 1036.0 |
| 20260906181820 | 56 | 254 | 4.3 | 4.3 | 0.00 | 0.06 | 0.06 | 58 | 1036.3 |
| 20260906181317 | 53 | 154 | 3.5 | 5.2 | 0.00 | 0.06 | 0.06 | 60 | 1036.4 |
| 20260906180812 | 53 | 276 | 6.1 | 6.1 | 0.00 | 0.06 | 0.06 | 60 | 1036.3 |
| 20260906180312 | 52 | 321 | 6.1 | 7.0 | 0.00 | 0.06 | 0.06 | 62 | 1036.6 |
| 20260906175809 | 53 | 295 | 8.7 | 8.7 | 0.00 | 0.06 | 0.06 | 61 | 1036.7 |
| 20260906175306 | 52 | 340 | 6.1 | 7.0 | 0.00 | 0.06 | 0.06 | 61 | 1036.9 |
| 20260906174804 | 53 | 336 | 7.8 | 7.8 | 0.00 | 0.06 | 0.06 | 61 | 1036.6 |
| 20260906174303 | 54 | 162 | 6.1 | 7.0 | 0.00 | 0.06 | 0.06 | 60 | 1036.6 |
| 20260906173758 | 55 | 19 | 1.7 | 4.3 | 0.00 | 0.06 | 0.06 | 59 | 1037.1 |
| 20260906173254 | 55 | 125 | 4.3 | 5.2 | 0.00 | 0.06 | 0.06 | 57 | 1037.0 |
| 20260906172754 | 55 | 120 | 0.0 | 0.9 | 0.07 | 0.06 | 0.06 | 56 | 1037.1 |
| 20260906172250 | 54 | 116 | 0.9 | 0.9 | 0.07 | 0.06 | 0.06 | 57 | 1037.0 |
| 20260906171750 | 55 | 185 | 3.5 | 6.1 | 0.00 | 0.05 | 0.05 | 60 | 1037.1 |
| 20260906171245 | 54 | 152 | 4.3 | 6.1 | 0.00 | 0.05 | 0.05 | 58 | 1037.1 |
| 20260906170741 | 53 | 134 | 4.3 | 5.2 | 0.00 | 0.05 | 0.05 | 59 | 1037.0 |
| 20260906170236 | 53 | 166 | 3.5 | 4.3 | 0.00 | 0.05 | 0.05 | 61 | 1037.1 |
| 20260906165732 | 53 | 227 | 3.5 | 4.3 | 0.00 | 0.05 | 0.05 | 60 | 1037.3 |
| 20260906165226 | 52 | 267 | 5.2 | 5.2 | 0.00 | 0.05 | 0.05 | 65 | 1037.3 |
| 20260906164721 | 53 | 277 | 3.5 | 4.3 | 0.00 | 0.05 | 0.05 | 64 | 1037.1 |
| 20260906164216 | 54 | 122 | 0.9 | 0.9 | 0.00 | 0.05 | 0.05 | 59 | 1037.0 |
| 20260906163712 | 52 | 131 | 3.5 | 4.3 | 0.00 | 0.05 | 0.05 | 62 | 1037.3 |
| 20260906163208 | 52 | 155 | 5.2 | 6.1 | 0.00 | 0.05 | 0.05 | 63 | 1037.1 |
| 20260906162704 | 53 | 153 | 5.2 | 6.1 | 0.00 | 0.05 | 0.05 | 67 | 1037.1 |
| 20260906162204 | 51 | 92 | 0.0 | 0.0 | 0.00 | 0.05 | 0.05 | 65 | 1037.1 |
| 20260906161659 | 51 | 242 | 1.7 | 1.7 | 0.00 | 0.05 | 0.05 | 66 | 1037.1 |
| 20260906161158 | 51 | 171 | 3.5 | 4.3 | 0.00 | 0.05 | 0.05 | 67 | 1037.3 |
| 20260906160657 | 51 | 167 | 3.5 | 4.3 | 0.00 | 0.05 | 0.05 | 66 | 1037.3 |
| 20260906160156 | 51 | 171 | 4.3 | 5.2 | 0.00 | 0.05 | 0.05 | 68 | 1037.1 |
| 20260906155654 | 51 | 171 | 3.5 | 4.3 | 0.00 | 0.05 | 0.05 | 65 | 1037.1 |
| 20260906155149 | 50 | 168 | 4.3 | 4.3 | 0.00 | 0.05 | 0.05 | 65 | 1037.0 |
| 20260906154645 | 50 | 153 | 1.7 | 1.7 | 0.00 | 0.05 | 0.05 | 69 | 1037.0 |
| 20260906154144 | 51 | 167 | 3.5 | 4.3 | 0.00 | 0.05 | 0.05 | 68 | 1036.9 |
| 20260906153643 | 50 | 165 | 1.7 | 1.7 | 0.00 | 0.05 | 0.05 | 66 | 1036.6 |
| 20260906153138 | 50 | 172 | 2.6 | 2.6 | 0.00 | 0.05 | 0.05 | 66 | 1036.9 |
| 20260906152633 | 50 | 179 | 2.6 | 2.6 | 0.00 | 0.05 | 0.05 | 67 | 1037.0 |
| 20260906152126 | 50 | 205 | 4.3 | 5.2 | 0.00 | 0.05 | 0.05 | 67 | 1036.9 |
| 20260906151621 | 50 | 174 | 3.5 | 4.3 | 0.00 | 0.05 | 0.05 | 66 | 1036.9 |
| 20260906151118 | 50 | 163 | 1.7 | 2.6 | 0.00 | 0.05 | 0.05 | 67 | 1036.9 |
| 20260906150613 | 49 | 159 | 0.0 | 0.9 | 0.00 | 0.05 | 0.05 | 67 | 1036.7 |
| 20260906150108 | 48 | 162 | 1.7 | 1.7 | 0.00 | 0.05 | 0.05 | 70 | 1037.1 |
| 20260906145606 | 49 | 158 | 2.6 | 2.6 | 0.00 | 0.05 | 0.05 | 71 | 1036.7 |
| 20260906145101 | 51 | 140 | 0.0 | 0.0 | 0.00 | 0.05 | 0.05 | 68 | 1036.7 |
| 20260906144555 | 52 | 131 | 0.0 | 0.0 | 0.00 | 0.05 | 0.05 | 64 | 1036.7 |
| 20260906144051 | 51 | 143 | 0.0 | 0.0 | 0.00 | 0.05 | 0.05 | 65 | 1036.9 |
| 20260906143546 | 49 | 218 | 0.0 | 0.0 | 0.07 | 0.05 | 0.05 | 67 | 1036.9 |
| 20260906143043 | 49 | 305 | 0.9 | 0.9 | 0.07 | 0.05 | 0.05 | 66 | 1036.7 |
| 20260906142542 | 50 | 25 | 0.0 | 0.0 | 0.00 | 0.04 | 0.04 | 67 | 1036.6 |
| 20260906142038 | 50 | 64 | 0.0 | 0.0 | 0.00 | 0.04 | 0.04 | 66 | 1036.7 |
| 20260906141536 | 47 | 31 | 0.0 | 0.0 | 0.00 | 0.04 | 0.04 | 67 | 1036.3 |
| 20260906141032 | 47 | 299 | 0.0 | 0.9 | 0.00 | 0.04 | 0.04 | 67 | 1036.7 |
| 20260906140531 | 47 | 246 | 0.0 | 0.9 | 0.00 | 0.04 | 0.04 | 68 | 1036.6 |
| 20260906140031 | 47 | 246 | 1.7 | 1.7 | 0.00 | 0.04 | 0.04 | 67 | 1036.9 |
| 20260906135528 | 50 | 148 | 0.0 | 0.0 | 0.00 | 0.04 | 0.04 | 68 | 1037.0 |
| 20260906135024 | 49 | 99 | 0.9 | 1.7 | 0.00 | 0.04 | 0.04 | 70 | 1036.6 |
| 20260906134519 | 48 | 87 | 2.6 | 2.6 | 0.00 | 0.04 | 0.04 | 72 | 1036.3 |
| 20260906134014 | 47 | 79 | 4.3 | 4.3 | 0.00 | 0.04 | 0.04 | 74 | 1036.3 |
| 20260906133510 | 47 | 58 | 1.7 | 1.7 | 0.00 | 0.04 | 0.04 | 68 | 1036.3 |
| 20260906133005 | 47 | 35 | 0.9 | 0.9 | 0.00 | 0.04 | 0.04 | 67 | 1036.3 |
| 20260906132500 | 46 | 36 | 0.9 | 0.9 | 0.00 | 0.04 | 0.04 | 69 | 1036.1 |
| 20260906131955 | 47 | 25 | 0.9 | 0.9 | 0.00 | 0.04 | 0.04 | 69 | 1036.0 |
| 20260906131451 | 47 | 339 | 0.0 | 0.0 | 0.00 | 0.04 | 0.04 | 69 | 1036.3 |
| 20260906130946 | 47 | 278 | 0.0 | 0.0 | 0.00 | 0.04 | 0.04 | 69 | 1036.1 |
| 20260906130445 | 47 | 271 | 0.0 | 0.0 | 0.00 | 0.04 | 0.04 | 69 | 1036.0 |
| 20260906125940 | 47 | 272 | 0.9 | 0.9 | 0.00 | 0.04 | 0.04 | 70 | 1036.0 |
| 20260906125438 | 47 | 237 | 0.9 | 0.9 | 0.00 | 0.04 | 0.04 | 73 | 1035.8 |
| 20260906124937 | 47 | 205 | 0.0 | 0.0 | 0.00 | 0.04 | 0.04 | 75 | 1035.8 |
| 20260906124433 | 47 | 122 | 1.7 | 1.7 | 0.00 | 0.04 | 0.04 | 76 | 1036.0 |
| 20260906123933 | 46 | 127 | 0.0 | 0.0 | 0.00 | 0.04 | 0.04 | 75 | 1035.8 |
| 20260906123433 | 45 | 118 | 0.0 | 0.0 | 0.00 | 0.04 | 0.04 | 78 | 1035.8 |
| 20260906122933 | 45 | 165 | 0.0 | 0.0 | 0.00 | 0.04 | 0.04 | 77 | 1035.8 |
| 20260906122427 | 47 | 154 | 0.0 | 0.0 | 0.00 | 0.04 | 0.04 | 75 | 1036.0 |
| 20260906121925 | 47 | 147 | 0.9 | 0.9 | 0.00 | 0.04 | 0.04 | 75 | 1036.1 |
| 20260906121420 | 47 | 126 | 2.6 | 2.6 | 0.00 | 0.04 | 0.04 | 74 | 1035.8 |
| 20260906120917 | 47 | 155 | 0.9 | 0.9 | 0.00 | 0.04 | 0.04 | 75 | 1036.0 |
| 20260906120412 | 46 | 158 | 0.0 | 0.0 | 0.00 | 0.04 | 0.04 | 75 | 1036.0 |
| 20260906115908 | 45 | 269 | 0.0 | 0.0 | 0.00 | 0.04 | 0.04 | 76 | 1036.0 |
| 20260906115403 | 46 | 277 | 0.0 | 0.0 | 0.00 | 0.04 | 0.04 | 69 | 1035.7 |
| 20260906114902 | 46 | 279 | 0.9 | 0.9 | 0.00 | 0.04 | 0.04 | 68 | 1036.3 |
| 20260906114357 | 46 | 278 | 2.6 | 2.6 | 0.05 | 0.04 | 0.04 | 68 | 1036.1 |
| 20260906113853 | 46 | 278 | 2.6 | 2.6 | 0.05 | 0.04 | 0.04 | 69 | 1036.4 |
| 20260906113352 | 46 | 280 | 1.7 | 1.7 | 0.00 | 0.03 | 0.03 | 75 | 1036.4 |
| 20260906112847 | 46 | 282 | 0.9 | 1.7 | 0.00 | 0.03 | 0.03 | 74 | 1036.3 |
| 20260906112343 | 46 | 287 | 1.7 | 1.7 | 0.00 | 0.03 | 0.03 | 72 | 1036.3 |
| 20260906111844 | 47 | 275 | 1.7 | 1.7 | 0.00 | 0.03 | 0.03 | 75 | 1036.0 |
| 20260906111343 | 47 | 286 | 1.7 | 1.7 | 0.00 | 0.03 | 0.03 | 75 | 1036.1 |
| 20260906110838 | 47 | 275 | 1.7 | 1.7 | 0.00 | 0.03 | 0.03 | 75 | 1036.3 |
| 20260906110334 | 47 | 238 | 1.7 | 1.7 | 0.00 | 0.03 | 0.03 | 74 | 1036.3 |
| 20260906105833 | 47 | 209 | 0.0 | 0.0 | 0.00 | 0.03 | 0.03 | 75 | 1036.0 |
| 20260906105329 | 47 | 247 | 0.0 | 0.0 | 0.00 | 0.03 | 0.03 | 75 | 1036.0 |
| 20260906104825 | 47 | 249 | 0.9 | 0.9 | 0.00 | 0.03 | 0.03 | 74 | 1036.1 |
| 20260906104323 | 47 | 195 | 0.9 | 1.7 | 0.00 | 0.03 | 0.03 | 75 | 1036.4 |
| 20260906103822 | 47 | 167 | 1.7 | 1.7 | 0.00 | 0.03 | 0.03 | 75 | 1036.3 |
| 20260906103320 | 48 | 155 | 2.6 | 2.6 | 0.00 | 0.03 | 0.03 | 74 | 1036.1 |
| 20260906102817 | 49 | 170 | 2.6 | 4.3 | 0.00 | 0.03 | 0.03 | 73 | 1036.0 |
| 20260906102315 | 49 | 160 | 2.6 | 2.6 | 0.00 | 0.03 | 0.03 | 72 | 1036.1 |
| 20260906101811 | 49 | 149 | 4.3 | 4.3 | 0.00 | 0.03 | 0.03 | 72 | 1036.1 |
| 20260906101306 | 49 | 153 | 3.5 | 4.3 | 0.00 | 0.03 | 0.03 | 72 | 1036.3 |
| 20260906100801 | 49 | 152 | 2.6 | 2.6 | 0.00 | 0.03 | 0.03 | 72 | 1035.8 |
| 20260906100301 | 49 | 146 | 4.3 | 4.3 | 0.00 | 0.03 | 0.03 | 72 | 1036.0 |
| 20260906095756 | 49 | 150 | 4.3 | 5.2 | 0.00 | 0.03 | 0.03 | 71 | 1036.0 |
| 20260906095251 | 49 | 157 | 4.3 | 4.3 | 0.00 | 0.03 | 0.03 | 71 | 1036.1 |
| 20260906094750 | 49 | 145 | 4.3 | 4.3 | 0.00 | 0.03 | 0.03 | 71 | 1036.0 |
| 20260906094245 | 49 | 151 | 4.3 | 4.3 | 0.00 | 0.03 | 0.03 | 72 | 1036.3 |
| 20260906093742 | 49 | 149 | 4.3 | 5.2 | 0.00 | 0.03 | 0.03 | 72 | 1036.4 |
| 20260906093237 | 49 | 153 | 4.3 | 5.2 | 0.07 | 0.03 | 0.03 | 71 | 1036.0 |
| 20260906092732 | 49 | 145 | 4.3 | 5.2 | 0.07 | 0.03 | 0.03 | 72 | 1036.1 |
| 20260906092232 | 49 | 152 | 5.2 | 5.2 | 0.00 | 0.02 | 0.02 | 72 | 1035.8 |
| 20260906091728 | 48 | 153 | 5.2 | 5.2 | 0.00 | 0.02 | 0.02 | 72 | 1036.0 |
| 20260906091224 | 48 | 146 | 6.1 | 6.1 | 0.00 | 0.02 | 0.02 | 72 | 1036.1 |
| 20260906090720 | 48 | 134 | 6.1 | 6.1 | 0.00 | 0.02 | 0.02 | 72 | 1036.1 |
| 20260906090219 | 48 | 140 | 7.0 | 7.0 | 0.00 | 0.02 | 0.02 | 73 | 1036.3 |
| 20260906085719 | 48 | 152 | 6.1 | 6.1 | 0.00 | 0.02 | 0.02 | 74 | 1036.3 |
| 20260906085218 | 48 | 144 | 5.2 | 6.1 | 0.00 | 0.02 | 0.02 | 73 | 1036.4 |
| 20260906084713 | 48 | 148 | 6.1 | 6.1 | 0.00 | 0.02 | 0.02 | 71 | 1036.4 |
| 20260906084213 | 48 | 119 | 5.2 | 5.2 | 0.00 | 0.02 | 0.02 | 72 | 1036.3 |
| 20260906083708 | 49 | 131 | 5.2 | 6.1 | 0.00 | 0.02 | 0.02 | 71 | 1036.3 |
| 20260906083203 | 49 | 144 | 6.1 | 6.1 | 0.00 | 0.02 | 0.02 | 71 | 1036.1 |
| 20260906082658 | 49 | 156 | 7.0 | 7.0 | 0.00 | 0.02 | 0.02 | 72 | 1036.3 |
| 20260906082153 | 49 | 154 | 5.2 | 6.1 | 0.00 | 0.02 | 0.02 | 72 | 1036.3 |
| 20260906081649 | 49 | 143 | 5.2 | 6.1 | 0.00 | 0.02 | 0.02 | 71 | 1036.3 |
| 20260906081144 | 49 | 144 | 5.2 | 6.1 | 0.00 | 0.02 | 0.02 | 71 | 1036.1 |
| 20260906080640 | 49 | 133 | 5.2 | 5.2 | 0.00 | 0.02 | 0.02 | 71 | 1036.3 |
| 20260906080136 | 49 | 133 | 4.3 | 4.3 | 0.00 | 0.02 | 0.02 | 71 | 1036.1 |
| 20260906075636 | 48 | 139 | 3.5 | 4.3 | 0.00 | 0.02 | 0.02 | 72 | 1036.3 |
| 20260906075130 | 48 | 102 | 2.6 | 2.6 | 0.00 | 0.02 | 0.02 | 73 | 1036.4 |
| 20260906074626 | 49 | 105 | 4.3 | 4.3 | 0.00 | 0.02 | 0.02 | 71 | 1036.1 |
| 20260906074125 | 49 | 126 | 4.3 | 5.2 | 0.00 | 0.02 | 0.02 | 71 | 1036.3 |
| 20260906073620 | 49 | 144 | 4.3 | 4.3 | 0.00 | 0.02 | 0.02 | 71 | 1036.3 |
| 20260906073115 | 49 | 151 | 4.3 | 4.3 | 0.00 | 0.02 | 0.02 | 71 | 1036.7 |
| 20260906072610 | 49 | 144 | 4.3 | 5.2 | 0.00 | 0.02 | 0.02 | 71 | 1036.7 |
| 20260906072107 | 48 | 136 | 4.3 | 5.2 | 0.00 | 0.02 | 0.02 | 72 | 1036.4 |
| 20260906071603 | 48 | 103 | 3.5 | 4.3 | 0.00 | 0.02 | 0.02 | 73 | 1036.6 |
| 20260906071103 | 48 | 122 | 4.3 | 4.3 | 0.00 | 0.02 | 0.02 | 73 | 1036.3 |
| 20260906070559 | 49 | 134 | 5.2 | 5.2 | 0.05 | 0.02 | 0.02 | 70 | 1036.6 |
| 20260906070054 | 49 | 132 | 4.3 | 5.2 | 0.05 | 0.02 | 0.02 | 70 | 1036.6 |
| 20260906065554 | 49 | 135 | 4.3 | 5.2 | 0.00 | 0.01 | 0.01 | 70 | 1036.4 |
| 20260906065050 | 49 | 133 | 5.2 | 5.2 | 0.00 | 0.01 | 0.01 | 71 | 1036.4 |
| 20260906064546 | 49 | 135 | 5.2 | 5.2 | 0.00 | 0.01 | 0.01 | 70 | 1036.4 |
| 20260906064040 | 49 | 130 | 6.1 | 7.0 | 0.00 | 0.01 | 0.01 | 71 | 1036.7 |
| 20260906063535 | 48 | 131 | 7.8 | 7.8 | 0.00 | 0.01 | 0.01 | 73 | 1036.6 |
| 20260906063032 | 49 | 129 | 6.1 | 7.0 | 0.00 | 0.01 | 0.01 | 72 | 1036.6 |
| 20260906062526 | 48 | 126 | 7.0 | 7.8 | 0.00 | 0.01 | 0.01 | 72 | 1036.9 |
| 20260906062021 | 48 | 123 | 7.0 | 7.0 | 0.00 | 0.01 | 0.01 | 75 | 1036.7 |
| 20260906061517 | 48 | 128 | 8.7 | 8.7 | 0.00 | 0.01 | 0.01 | 74 | 1036.6 |
| 20260906061016 | 50 | 111 | 6.1 | 6.1 | 0.00 | 0.01 | 0.01 | 67 | 1036.6 |
| 20260906060513 | 49 | 139 | 1.7 | 1.7 | 0.00 | 0.01 | 0.01 | 68 | 1036.6 |
| 20260906060009 | 48 | 145 | 1.7 | 1.7 | 0.00 | 0.01 | 0.01 | 69 | 1036.6 |
| 20260906055505 | 49 | 168 | 0.9 | 0.9 | 0.00 | 0.01 | 0.01 | 69 | 1036.6 |
| 20260906055001 | 49 | 178 | 0.9 | 0.9 | 0.00 | 0.01 | 0.01 | 70 | 1036.7 |
| 20260906054500 | 48 | 216 | 0.0 | 0.0 | 0.00 | 0.01 | 0.01 | 70 | 1036.7 |
| 20260906053956 | 48 | 157 | 0.0 | 0.0 | 0.00 | 0.01 | 0.01 | 71 | 1036.9 |
| 20260906053452 | 48 | 181 | 0.0 | 0.0 | 0.00 | 0.01 | 0.01 | 72 | 1036.6 |
| 20260906052948 | 48 | 170 | 0.0 | 0.0 | 0.00 | 0.01 | 0.01 | 72 | 1036.4 |
| 20260906052444 | 48 | 140 | 0.9 | 0.9 | 0.00 | 0.01 | 0.01 | 74 | 1036.7 |
| 20260906051940 | 47 | 131 | 3.5 | 4.3 | 0.00 | 0.01 | 0.01 | 75 | 1037.1 |
| 20260906051436 | 47 | 126 | 4.3 | 5.2 | 0.00 | 0.01 | 0.01 | 78 | 1036.9 |
| 20260906050931 | 46 | 98 | 5.2 | 5.2 | 0.00 | 0.01 | 0.01 | 81 | 1037.1 |
| 20260906050431 | 46 | 85 | 5.2 | 6.1 | 0.00 | 0.01 | 0.01 | 81 | 1037.1 |
| 20260906045930 | 45 | 97 | 6.1 | 6.1 | 0.00 | 0.01 | 0.01 | 84 | 1037.1 |
| 20260906045428 | 45 | 99 | 6.1 | 6.1 | 0.00 | 0.01 | 0.01 | 85 | 1037.0 |
| 20260906044926 | 45 | 81 | 7.0 | 7.8 | 0.00 | 0.01 | 0.01 | 84 | 1037.3 |
| 20260906044426 | 45 | 101 | 5.2 | 6.1 | 0.00 | 0.01 | 0.01 | 85 | 1037.3 |
| 20260906043921 | 45 | 90 | 7.8 | 7.8 | 0.07 | 0.01 | 0.01 | 84 | 1037.4 |
| 20260906043417 | 44 | 146 | 5.2 | 5.2 | 0.07 | 0.01 | 0.01 | 88 | 1037.4 |
| 20260906042912 | 45 | 117 | 5.2 | 5.2 | 0.00 | 0.00 | 0.00 | 87 | 1037.4 |
| 20260906042411 | 45 | 82 | 7.8 | 7.8 | 0.00 | 0.00 | 0.00 | 87 | 1037.4 |
| 20260906041906 | 44 | 72 | 7.0 | 7.0 | 0.00 | 0.00 | 0.00 | 87 | 1037.6 |
| 20260906041403 | 44 | 61 | 6.1 | 7.0 | 0.00 | 0.00 | 0.00 | 87 | 1037.3 |
| 20260906040902 | 44 | 62 | 6.1 | 6.1 | 0.00 | 0.00 | 0.00 | 90 | 1037.7 |
| 20260906040358 | 44 | 59 | 5.2 | 5.2 | 0.00 | 0.00 | 0.00 | 90 | 1037.7 |
| 20260906035853 | 44 | 124 | 6.1 | 6.1 | 0.00 | 0.00 | 0.00 | 91 | 1037.7 |
| 20260906035348 | 43 | 134 | 12.2 | 13.0 | 0.00 | 0.00 | 0.00 | 97 | 1037.6 |
| 20260906034844 | 44 | 138 | 14.8 | 15.6 | 0.00 | 0.00 | 0.00 | 89 | 1037.9 |
| 20260906034344 | 45 | 141 | 12.2 | 13.9 | 0.00 | 0.00 | 0.00 | 85 | 1037.7 |
| 20260906033840 | 45 | 117 | 7.8 | 7.8 | 0.00 | 0.00 | 0.00 | 86 | 1037.9 |
| 20260906033339 | 46 | 67 | 5.2 | 5.2 | 0.00 | 0.00 | 0.00 | 85 | 1037.4 |
| 20260906032835 | 46 | 59 | 7.0 | 7.0 | 0.00 | 0.00 | 0.00 | 84 | 1037.7 |
| 20260906032331 | 45 | 67 | 9.6 | 11.3 | 0.00 | 0.00 | 0.00 | 85 | 1037.4 |
| 20260906031826 | 44 | 63 | 9.6 | 11.3 | 0.00 | 0.00 | 0.00 | 88 | 1037.1 |
| 20260906031321 | 44 | 71 | 10.4 | 12.2 | 0.00 | 0.00 | 0.00 | 88 | 1037.3 |
| 20260906030822 | 44 | 61 | 8.7 | 9.6 | 0.00 | 0.00 | 0.00 | 89 | 1036.9 |
| 20260906030317 | 45 | 57 | 7.8 | 8.7 | 0.00 | 0.00 | 0.00 | 86 | 1037.3 |
| 20260906025816 | 45 | 55 | 6.1 | 7.8 | 0.00 | 0.00 | 0.00 | 83 | 1037.0 |
| 20260906025311 | 45 | 58 | 6.1 | 7.0 | 0.00 | 0.00 | 0.00 | 80 | 1036.9 |
| 20260906024810 | 46 | 73 | 7.8 | 9.6 | 0.00 | 0.00 | 0.00 | 81 | 1036.9 |
| 20260906024309 | 46 | 53 | 6.1 | 7.0 | 0.00 | 0.00 | 0.00 | 74 | 1036.9 |
| 20260906023805 | 45 | 46 | 7.0 | 7.8 | 0.00 | 0.00 | 0.00 | 80 | 1037.1 |
| 20260906023300 | 44 | 3 | 12.2 | 13.0 | 0.00 | 0.00 | 0.00 | 84 | 1036.9 |
| 20260906022755 | 45 | 211 | 1.7 | 1.7 | 0.00 | 0.00 | 0.00 | 87 | 1037.4 |
| 20260906022251 | 48 | 242 | 7.8 | 7.8 | 0.00 | 0.00 | 0.00 | 74 | 1037.3 |
| 20260906021747 | 47 | 268 | 5.2 | 6.1 | 0.00 | 0.00 | 0.00 | 77 | 1036.9 |
| 20260906021245 | 47 | 273 | 7.8 | 7.8 | 0.00 | 0.00 | 0.00 | 79 | 1036.9 |
| 20260906020741 | 49 | 223 | 7.8 | 8.7 | 0.00 | 0.00 | 0.00 | 77 | 1036.9 |
| 20260906020240 | 49 | 236 | 7.8 | 7.8 | 0.00 | 0.00 | 0.00 | 72 | 1036.4 |
| 20260906015735 | 50 | 258 | 5.2 | 6.1 | 0.00 | 0.00 | 0.00 | 70 | 1036.9 |
| 20260906015233 | 51 | 238 | 4.3 | 5.2 | 0.00 | 0.00 | 0.00 | 67 | 1036.7 |
| 20260906014728 | 51 | 230 | 4.3 | 5.2 | 0.00 | 0.00 | 0.00 | 65 | 1036.1 |
| 20260906014224 | 52 | 237 | 3.5 | 4.3 | 0.00 | 0.00 | 0.00 | 61 | 1036.3 |
| 20260906013720 | 52 | 178 | 1.7 | 2.6 | 0.00 | 0.00 | 0.00 | 60 | 1036.1 |
| 20260906013220 | 52 | 174 | 1.7 | 1.7 | 0.00 | 0.00 | 0.00 | 59 | 1036.1 |
| 20260906012716 | 53 | 149 | 0.9 | 0.9 | 0.00 | 0.00 | 0.00 | 58 | 1036.1 |
| 20260906012215 | 54 | 249 | 0.0 | 0.0 | 0.00 | 0.00 | 0.00 | 56 | 1036.1 |
| 20260906011711 | 53 | 260 | 0.9 | 1.7 | 0.00 | 0.00 | 0.00 | 57 | 1036.0 |
| 20260906011205 | 54 | 247 | 0.0 | 0.0 | 0.00 | 0.00 | 0.00 | 57 | 1036.3 |
| 20260906010701 | 54 | 340 | 0.9 | 0.9 | 0.00 | 0.00 | 0.00 | 57 | 1036.6 |
| 20260906010157 | 54 | 298 | 0.0 | 0.0 | 0.00 | 0.00 | 0.00 | 56 | 1036.3 |
| 20260906005656 | 54 | 355 | 0.9 | 0.9 | 0.00 | 0.00 | 0.00 | 56 | 1036.7 |
| 20260906005156 | 55 | 312 | 2.6 | 2.6 | 0.00 | 0.00 | 0.00 | 56 | 1036.4 |
| 20260906004655 | 54 | 341 | 1.7 | 1.7 | 0.00 | 0.00 | 0.00 | 57 | 1036.6 |
| 20260906004150 | 54 | 291 | 2.6 | 2.6 | 0.00 | 0.00 | 0.00 | 57 | 1036.4 |
| 20260906003645 | 54 | 189 | 1.7 | 1.7 | 0.00 | 0.00 | 0.00 | 59 | 1036.0 |
| 20260906003141 | 53 | 168 | 3.5 | 4.3 | 0.00 | 0.00 | 0.00 | 57 | 1036.1 |
| 20260906002636 | 54 | 181 | 8.7 | 11.3 | 0.00 | 0.00 | 0.00 | 56 | 1036.3 |
| 20260906002130 | 54 | 145 | 7.0 | 8.7 | 0.00 | 0.00 | 0.00 | 48 | 1036.0 |
| 20260906001626 | 54 | 152 | 3.5 | 5.2 | 0.00 | 0.00 | 0.00 | 54 | 1036.3 |
| 20260906001125 | 53 | 93 | 1.7 | 2.6 | 0.00 | 0.00 | 0.00 | 57 | 1036.4 |
| 20260906000621 | 53 | 318 | 0.9 | 0.9 | 0.00 | 0.00 | 0.00 | 57 | 1036.6 |
| 20260906000117 | 52 | 20 | 2.6 | 2.6 | 0.00 | 0.00 | 0.00 | 64 | 1036.3 |
| 20260905235615 | 52 | 3 | 4.3 | 5.2 | 0.00 | 0.00 | 0.00 | 64 | 1036.3 |
| 20260905235111 | 52 | 19 | 3.5 | 4.3 | 0.00 | 0.00 | 0.00 | 64 | 1036.3 |
| 20260905234606 | 53 | 359 | 7.0 | 7.0 | 0.00 | 0.00 | 0.00 | 61 | 1036.3 |
| 20260905234101 | 53 | 353 | 6.1 | 7.8 | 0.00 | 0.00 | 0.00 | 63 | 1036.6 |
| 20260905233601 | 54 | 246 | 6.1 | 7.0 | 0.00 | 0.00 | 0.00 | 61 | 1036.6 |
| 20260905233056 | 54 | 244 | 7.8 | 8.7 | 0.00 | 0.00 | 0.00 | 51 | 1036.4 |
| 20260905232551 | 54 | 172 | 7.0 | 7.8 | 0.00 | 0.00 | 0.00 | 53 | 1036.0 |
| 20260905232047 | 55 | 152 | 8.7 | 9.6 | 0.00 | 0.00 | 0.00 | 50 | 1036.4 |
| 20260905231542 | 55 | 144 | 8.7 | 8.7 | 0.00 | 0.00 | 0.00 | 54 | 1036.3 |